Regional Weather Roundup
Issued by NWS

Home | Current Version | Previous Version | Text Only | Print | Product List | Glossary On
Versions: 1 2 3 4 5 6 7 8 9 10 11 12 13 14 15 16 17 18 19 20 21 22 23 24 25 26 27 28 29 30 31 32 33 34 35 36 37 38 39 40 41 42 43 44 45 46 47 48 49 50
000
ASUS43 KDTX 251710
RWRMI
MICHIGAN HOURLY REGIONAL WEATHER ROUNDUP
NATIONAL WEATHER SERVICE DETROIT/PONTIAC MI
ISSUED BY NATIONAL WEATHER SERVICE GRAND RAPIDS MI
100 PM EDT TUE JUL 25 2017

NOTE: "FAIR" INDICATES FEW OR NO CLOUDS BELOW 12,000 FEET WITH NO
SIGNIFICANT WEATHER AND/OR OBSTRUCTION TO VISIBILITY.

MIZ047>049-052>055-059>063-066>070-074>076-081>083-251800-
SOUTHEAST LOWER MICHIGAN

CITY           SKY/WX    TMP DP  RH WIND       PRES   REMARKS
ADRIAN         SUNNY     75  54  47 E9        30.25S
ALMA           MOSUNNY   75  47  37 E8        30.23F
ANN ARBOR      SUNNY     78  54  43 CALM      30.23F
BAD AXE        SUNNY     73  55  52 E7        30.24F
DETROIT CITY   SUNNY     75  56  51 E8        30.23S
DETROIT        MOSUNNY   77  53  43 VRB3      30.23S
FLINT          SUNNY     76  53  44 NE6       30.24S
GROSSE ILE     SUNNY     76  55  47 E10       30.23S
HILLSDALE      MOSUNNY   73  50  43 NE5       30.24F
HOWELL         SUNNY     74  52  46 E7        30.25S

CITY           SKY/WX    TMP DP  RH WIND       PRES   REMARKS
JACKSON        SUNNY     76  50  40 NE9       30.24F
LANSING        SUNNY     76  51  41 NE8       30.24F
MASON          SUNNY     74  55  51 SE6       30.24F
MONROE         MOSUNNY   74  56  53 E7        30.23S
MT. CLEMENS    MOSUNNY   76  56  50 NE8       30.22S
PONTIAC        MOSUNNY   76  52  43 VRB6      30.23S
PORT HOPE        N/A     69  57  65 E6        30.23F
PORT HURON     SUNNY     73  52  46 N9        30.23F
TRI CITIES     SUNNY     76  57  51 VRB5      30.24F
YPSILANTI      SUNNY     80  54  40 NE9       30.24S
$$
MIZ043>046-050>051-056>058-064>065-071>073-077>080-251800-
SOUTHWEST LOWER MICHIGAN

CITY           SKY/WX    TMP DP  RH WIND       PRES   REMARKS
BATTLE CREEK   SUNNY     75  50  41 VRB5      30.24F
BENTON HARBOR  SUNNY     77  53  43 SE8       30.22S
BIG RAPIDS     PTSUNNY   74  54  50 SW5       30.22S
COLDWATER      SUNNY     73  53  47 SE7       30.24F
GRAND RAPIDS   PTSUNNY   76  55  48 S9        30.22F
KALAMAZOO      SUNNY     77  47  34 VRB6      30.23F
MARSHALL       SUNNY     75  52  45 SE6       30.24S
MOUNT PLEASANT CLOUDY    78  50  37 E7        30.22F
MUSKEGON       PTSUNNY   76  57  51 SW12      30.22F
STURGIS        SUNNY     73  56  54 E8        30.23F
$$
MIZ016>042-251800-
NORTHERN LOWER MICHIGAN

CITY           SKY/WX    TMP DP  RH WIND       PRES   REMARKS
ALPENA         SUNNY     76  60  57 SE8       30.22F
BEAVER ISLAND  SUNNY     75  56  52 SW7       30.20S
BELLAIRE       SUNNY     77  51  40 S5        30.19S
CADILLAC       PTSUNNY   76  53  45 SE3       30.22S
CHARLEVOIX     SUNNY     76  54  45 S6        30.22S
GAYLORD        SUNNY     76  48  37 S9        30.22F
HOUGHTON LAKE  SUNNY     75  52  44 W7        30.23F
MANISTEE       PTSUNNY   74  61  63 W9        30.20S
OSCODA         SUNNY     74  53  48 S7        30.23S
PELLSTON       SUNNY     78  53  41 SW7       30.20F
TRAVERSE CITY  MOSUNNY   79  54  41 VRB3      30.18S
LUDINGTON      PTSUNNY   75  63  67 SW12      30.21R
$$
MIZ007>008-015-251800-
EASTERN UPPER MICHIGAN

CITY           SKY/WX    TMP DP  RH WIND       PRES   REMARKS
KINROSS        SUNNY     75  51  43 VRB5      30.20S
MACKINAC ISLAN SUNNY     72  60  65 N3        30.20S
NEWBERRY       SUNNY     71  55  57 S8G20     30.19S
S. S. MARIE    SUNNY     75  52  44 VRB3      30.19R
$$
MIZ004>006-011>014-085-251800-
CENTRAL UPPER MICHIGAN

CITY           SKY/WX    TMP DP  RH WIND       PRES   REMARKS
MANISTIQUE     SUNNY     69  63  79 S8        30.19R
ESCANABA       SUNNY     71  60  68 S13       30.18R
MENOMINEE      SUNNY     74  58  57 SW12      30.19R
SAWYER-GWINN   SUNNY     73  54  49 S13G20    30.16F
$$
MIZ001>003-009>011-084-251800-
WESTERN UPPER MICHIGAN

CITY           SKY/WX    TMP DP  RH WIND       PRES   REMARKS
IRON MOUNTAIN  PTSUNNY   74  46  36 S8        30.16R
HOUGHTON       MOSUNNY   76  54  46 S14       30.09F
COPPER HARBOR    N/A     74  56  53 SW9       30.10S
IRONWOOD       MOSUNNY   72  58  61 S16G22    30.09S
$$

ABBREVIATIONS USED IN REMARKS
   TC - TEMPERATURE IN CELSIUS
  WCI - WIND CHILL INDEX
   HX - HEAT INDEX
  VSB - VISIBILITY




USA.gov is the U.S. government's official web portal to all federal, state and local government web resources and services.